Location: La Tine
(46.4708°N, 7.0525°E)
Time: 01:48:44
(UTC+00:00)

Cosmos 990 Rocket - Pass Details

Date: 18 September 2020
Orbit: 746 x 769 km, 74.0° (Epoch: 31 October)

Event Time Altitude Azimuth Distance (km) Brightness Sun altitude
Rises 17:56:42 0° 190° (S) 3,177 7.3 -4.3°
Reaches altitude 10° 17:59:04 10° 188° (S) 2,257 6.5 -4.7°
Maximum altitude 18:04:06 64° 108° (ESE) 829 4.0 -5.5°
Drops below altitude 10° 18:09:11 10° 27° (NNE) 2,275 6.3 -6.4°
Sets 18:11:34 0° 25° (NNE) 3,205 7.1 -6.8°
